User: anonymous   Login
Location: Asheville, NC
(35.6000°N, 82.5500°W)
Time: 03:36:30
(UTC-04:00)
Language:

POLYITAN 1 - Orbit

View from above orbital plane
View from above orbital plane
View from above satellite
View from above satellite

Ground track
Ground track

The orbit data is extracted from the following two-line orbital elements,

1 40042U 14033AJ  18110.72384488 +.00000408 +00000-0 +50112-4 0  9991
2 40042 097.9145 026.3380 0015086 008.6969 351.4506 14.88359991207658
Epoch (UTC): 20 April 2018 17:22:20
Eccentricity: 0.0015086
inclination: 97.9145°
perigee height: 592 km
apogee height: 613 km
right ascension of ascending node: 26.3380°
argument of perigee: 8.6969°
revolutions per day: 14.88359991
mean anomaly at epoch: 351.4506°
orbit number at epoch: 20765

The dashed part of the orbit path shows where the satellite is in the earth's shadow,  

DLR